Location: Forli
(44.2227°N, 12.0407°E)
Time: 02:57:03
(UTC+02:00)

DX 1 - Pass Details

Date: 16 April 2026
Orbit: 593 x 604 km, 98.4° (Epoch: 19 May)

Event Time Altitude Azimuth Distance (km) Brightness Sun altitude
Rises 03:24:37 0° 26° (NNE) 2,841 ? -27.9°
Reaches altitude 10° 03:27:09 10° 41° (NE) 1,934 ? -27.6°
Maximum altitude 03:30:33 24° 95° (E) 1,257 ? -27.3°
Enters shadow 03:31:13 23° 110° (ESE) 1,289 ? -27.2°
